Weather in St Austell

United Kingdom     50°20′14″N   4°47′21″W
temp.,
°C
wind,
m/s
gust,
m/s
humid.,
%
clouds,
%
prec.,
mm/h
press.,
hPa
HPBL,
m
15 april, thu
thu1501:00+7e33835 0.1 1032255
04:00+6ene44853 0.0 1032225
07:00+6ene57855 0.0 1032323
10:00+7e78700 0.0 1033543
13:00+8ese66625 0.0 10331044
16:00+7ese56646 0.0 1033789
19:00+7ese34654 0.0 1032397
22:00+6ene23705 0.0 1032335
16 april, fri
fri1601:00+5nne33785 0.0 1032153
04:00+5ne34805 0.0 1032316
07:00+5ene45825 0.0 1031305
10:00+7e44765 0.0 1032524
13:00+8ese446932 0.0 1031724
16:00+8sse327036 0.0 1031604
19:00+7sse0170100 0.0 1031205
22:00+7n117356 0.0 1031130
17 april, sat
sat1701:00+5n22785 0.0 1030108
04:00+5ne22765 0.0 1030126
07:00+5ene227882 0.0 1029222
10:00+8ese337156 0.0 1029602
13:00+9se446890 0.0 1029757
16:00+9sse336793 0.0 1028677
19:00+8sse3370100 0.0 1027469
22:00+7sse3472100 0.0 1028373
18 april, sun
sun1801:00+8sse3468100 0.0 1027406
04:00+7s3468100 0.0 1026439
07:00+8s3471100 0.0 1025439
10:00+9s446977 0.0 1026694
13:00+10s557174 0.0 1025707
16:00+10s447082 0.0 1024614
19:00+9s347263 0.0 1024480
22:00+8sse3477100 0.0 1024337
19 april, mon
mon1901:00+9s457799 0.0 1023340
04:00+9s4579100 0.0 1022342
07:00+9sse4581100 0.0 1021352
10:00+10sse5678100 0.0 1020464
13:00+10sse5575100 0.0 1020486
16:00+10sse3475100 0.0 1018428
19:00+10ese2379100 0.0 1018221
22:00+9ese2282100 0.0 1018130